When you browse on this site, cookies collect data to enhance your experience and personalize the content and advertising you see.
Visit our Privacy Policy to learn more. By continuing to use the site, you agree to this use of cookies and data.
  • In Hungary
  • List of Countries
  • For 7 days
  • Water Temperature
  • Satellite Maps
  • Weather Map
  • News
  • Weather Widgets
  • user-avatar
    Login

    Hourly Weather Mekarzow

    Today, 10 December, Monday

    Time Temperature Precipitation Wind Pressure Humidity
    00:00 +3°C° 0.2 mm 5 mps 726 mmHg 83%
    01:00 +3°C° 0 mm 5 mps 726 mmHg 84%
    02:00 +3°C° 0.3 mm 5 mps 727 mmHg 83%
    03:00 +3°C° 0.3 mm 6 mps 727 mmHg 81%
    04:00 +3°C° 0.3 mm 7 mps 727 mmHg 79%
    05:00 +3°C° 0.3 mm 7 mps 727 mmHg 79%
    06:00 +2°C° 0.3 mm 7 mps 728 mmHg 78%
    07:00 +2°C° 0 mm 7 mps 729 mmHg 77%
    08:00 +2°C° 0.2 mm 7 mps 729 mmHg 76%
    09:00 +1°C° 0.2 mm 8 mps 730 mmHg 74%
    10:00 +1°C° 0.2 mm 8 mps 730 mmHg 73%
    11:00 +2°C° 0.1 mm 7 mps 731 mmHg 72%
    12:00 +2°C° 0.1 mm 7 mps 731 mmHg 70%
    13:00 +2°C° 0.1 mm 7 mps 732 mmHg 69%
    14:00 +2°C° 0.2 mm 6 mps 732 mmHg 71%
    15:00 +1°C° 0.2 mm 5 mps 732 mmHg 74%
    16:00 +1°C° 0.2 mm 5 mps 733 mmHg 76%
    17:00 0°C° 0.1 mm 5 mps 733 mmHg 78%
    18:00 0°C° 0.1 mm 5 mps 733 mmHg 79%
    19:00 0°C° 0.1 mm 5 mps 733 mmHg 81%
    20:00 0°C° 0 mm 4 mps 733 mmHg 82%
    21:00 -1°C° 0 mm 4 mps 733 mmHg 84%
    22:00 -1°C° 0 mm 4 mps 733 mmHg 85%
    23:00 -1°C° 0 mm 4 mps 734 mmHg 85%

    Tomorrow, 11 December, Tuesday

    Time Temperature Precipitation Wind Pressure Humidity
    00:00 -1°C° 0 mm 4 mps 734 mmHg 86%
    01:00 -1°C° 0 mm 4 mps 734 mmHg 87%
    02:00 -1°C° 0.1 mm 4 mps 734 mmHg 87%
    03:00 -1°C° 0.1 mm 4 mps 734 mmHg 88%
    04:00 0°C° 0.1 mm 3 mps 733 mmHg 88%
    05:00 -1°C° 0 mm 3 mps 733 mmHg 88%
    06:00 -2°C° 0 mm 4 mps 733 mmHg 89%
    07:00 -2°C° 0 mm 4 mps 733 mmHg 89%
    08:00 -1°C° 0.1 mm 4 mps 733 mmHg 87%
    09:00 -1°C° 0.1 mm 4 mps 733 mmHg 85%
    10:00 0°C° 0.1 mm 4 mps 734 mmHg 84%
    11:00 0°C° 0.2 mm 4 mps 733 mmHg 84%
    12:00 0°C° 0.2 mm 4 mps 733 mmHg 83%
    13:00 +1°C° 0.2 mm 3 mps 733 mmHg 83%
    14:00 +1°C° 0.2 mm 3 mps 733 mmHg 85%
    15:00 +1°C° 0.2 mm 3 mps 733 mmHg 87%
    16:00 +2°C° 0.2 mm 2 mps 733 mmHg 89%
    17:00 +2°C° 0.2 mm 2 mps 734 mmHg 90%
    18:00 +1°C° 0.2 mm 2 mps 734 mmHg 91%
    19:00 +1°C° 0.2 mm 2 mps 734 mmHg 92%
    20:00 +1°C° 0.2 mm 2 mps 734 mmHg 93%
    21:00 +1°C° 0.2 mm 2 mps 735 mmHg 93%
    22:00 +1°C° 0.2 mm 2 mps 735 mmHg 94%
    23:00 +1°C° 0.2 mm 2 mps 735 mmHg 94%

    Day after tomorrow, 12 December, Wednesday

    Time Temperature Precipitation Wind Pressure Humidity
    00:00 +1°C° 0.2 mm 2 mps 736 mmHg 95%
    01:00 +1°C° 0.2 mm 2 mps 736 mmHg 95%
    02:00 +1°C° 0.2 mm 2 mps 736 mmHg 95%
    03:00 +1°C° 0.2 mm 2 mps 736 mmHg 95%
    04:00 -1°C° 0.2 mm 2 mps 737 mmHg 95%
    05:00 -1°C° 0.1 mm 2 mps 737 mmHg 95%
    06:00 -1°C° 0.1 mm 2 mps 737 mmHg 95%
    07:00 -1°C° 0.1 mm 2 mps 738 mmHg 95%
    08:00 -1°C° 0.1 mm 2 mps 738 mmHg 94%
    09:00 -1°C° 0.1 mm 2 mps 738 mmHg 93%
    10:00 +1°C° 0.1 mm 2 mps 739 mmHg 92%
    11:00 +1°C° 0 mm 2 mps 739 mmHg 90%
    12:00 +1°C° 0 mm 2 mps 739 mmHg 89%
    13:00 +1°C° 0 mm 2 mps 739 mmHg 88%
    14:00 +1°C° 0 mm 2 mps 739 mmHg 89%
    15:00 -1°C° 0 mm 2 mps 739 mmHg 90%
    16:00 -1°C° 0 mm 2 mps 740 mmHg 90%
    17:00 -2°C° 0 mm 2 mps 740 mmHg 91%
    18:00 -2°C° 0 mm 2 mps 740 mmHg 91%
    19:00 -2°C° 0 mm 2 mps 740 mmHg 91%
    20:00 -2°C° 0 mm 2 mps 740 mmHg 91%
    21:00 -3°C° 0 mm 2 mps 740 mmHg 91%
    22:00 -3°C° 0 mm 2 mps 740 mmHg 91%
    23:00 -3°C° 0 mm 2 mps 740 mmHg 91%

    13 December, Thursday

    Time Temperature Precipitation Wind Pressure Humidity
    00:00 -3°C° 0 mm 2 mps 740 mmHg 92%
    01:00 -4°C° 0 mm 3 mps 740 mmHg 92%
    02:00 -4°C° 0.1 mm 3 mps 740 mmHg 92%
    03:00 -4°C° 0.1 mm 3 mps 740 mmHg 92%
    04:00 -4°C° 0.1 mm 4 mps 739 mmHg 92%
    05:00 -3°C° 0.2 mm 4 mps 739 mmHg 92%
    06:00 -3°C° 0.2 mm 4 mps 739 mmHg 91%
    07:00 -3°C° 0.2 mm 4 mps 739 mmHg 91%
    08:00 -3°C° 0.2 mm 4 mps 739 mmHg 91%
    09:00 -3°C° 0.2 mm 4 mps 739 mmHg 90%
    10:00 -3°C° 0.2 mm 4 mps 739 mmHg 89%
    11:00 -3°C° 0.2 mm 4 mps 738 mmHg 89%
    12:00 -2°C° 0.2 mm 4 mps 738 mmHg 88%
    13:00 -2°C° 0.2 mm 4 mps 738 mmHg 87%
    14:00 -1°C° 0.1 mm 3 mps 738 mmHg 89%
    15:00 -2°C° 0.1 mm 3 mps 738 mmHg 90%
    16:00 -2°C° 0.1 mm 3 mps 738 mmHg 91%
    17:00 -2°C° 0.1 mm 3 mps 738 mmHg 91%
    18:00 -2°C° 0.1 mm 3 mps 739 mmHg 92%
    19:00 -2°C° 0.1 mm 2 mps 739 mmHg 92%
    20:00 -2°C° 0.1 mm 2 mps 739 mmHg 93%
    21:00 -2°C° 0.1 mm 2 mps 740 mmHg 93%
    22:00 -2°C° 0.1 mm 2 mps 740 mmHg 94%
    23:00 -2°C° 0.1 mm 2 mps 740 mmHg 94%

    14 December, Friday

    Time Temperature Precipitation Wind Pressure Humidity
    00:00 -2°C° 0.1 mm 2 mps 740 mmHg 95%
    01:00 -2°C° 0.1 mm 2 mps 741 mmHg 95%
    02:00 -1°C° 0 mm 1 mps 741 mmHg 95%
    03:00 -1°C° 0 mm 1 mps 741 mmHg 96%
    04:00 -1°C° 0 mm 1 mps 741 mmHg 96%
    05:00 -1°C° 0 mm 1 mps 742 mmHg 96%
    06:00 -1°C° 0 mm 1 mps 742 mmHg 95%
    07:00 -2°C° 0 mm 0 mps 743 mmHg 95%
    08:00 -1°C° 0 mm 0 mps 743 mmHg 93%
    09:00 -1°C° 0 mm 0 mps 744 mmHg 91%
    10:00 0°C° 0 mm 0 mps 744 mmHg 90%
    11:00 0°C° 0 mm 0 mps 744 mmHg 88%
    12:00 +1°C° 0 mm 1 mps 745 mmHg 87%
    13:00 +2°C° 0 mm 1 mps 745 mmHg 86%
    14:00 +1°C° 0 mm 1 mps 745 mmHg 87%
    15:00 +1°C° 0 mm 1 mps 746 mmHg 88%
    16:00 +1°C° 0 mm 1 mps 746 mmHg 90%
    17:00 +1°C° 0 mm 1 mps 746 mmHg 90%
    18:00 0°C° 0 mm 1 mps 747 mmHg 91%
    19:00 0°C° 0 mm 1 mps 747 mmHg 91%
    20:00 0°C° 0 mm 1 mps 748 mmHg 92%
    21:00 0°C° 0 mm 1 mps 748 mmHg 92%
    22:00 0°C° 0 mm 1 mps 748 mmHg 92%
    23:00 0°C° 0 mm 1 mps 748 mmHg 92%

    15 December, Saturday

    Time Temperature Precipitation Wind Pressure Humidity
    00:00 -1°C° 0 mm 1 mps 748 mmHg 92%
    01:00 -2°C° 0 mm 0 mps 749 mmHg 91%
    02:00 -2°C° 0 mm 0 mps 749 mmHg 91%
    03:00 -1°C° 0 mm 1 mps 749 mmHg 91%
    04:00 -1°C° 0 mm 1 mps 749 mmHg 91%
    05:00 -1°C° 0 mm 1 mps 749 mmHg 91%
    06:00 -1°C° 0 mm 1 mps 750 mmHg 91%
    07:00 -1°C° 0 mm 1 mps 750 mmHg 91%
    08:00 -1°C° 0 mm 1 mps 750 mmHg 90%
    09:00 0°C° 0 mm 1 mps 751 mmHg 89%
    10:00 -2°C° 0 mm 2 mps 751 mmHg 88%
    11:00 -1°C° 0 mm 2 mps 751 mmHg 87%
    12:00 -1°C° 0 mm 2 mps 751 mmHg 87%
    13:00 -1°C° 0 mm 2 mps 751 mmHg 86%
    14:00 -1°C° 0 mm 2 mps 751 mmHg 87%
    15:00 -2°C° 0 mm 2 mps 751 mmHg 89%
    16:00 -2°C° 0 mm 2 mps 751 mmHg 90%
    17:00 -3°C° 0 mm 2 mps 751 mmHg 91%
    18:00 -3°C° 0 mm 2 mps 751 mmHg 91%
    19:00 -3°C° 0 mm 2 mps 752 mmHg 92%
    20:00 -3°C° 0 mm 2 mps 752 mmHg 92%
    21:00 -3°C° 0 mm 2 mps 752 mmHg 92%
    22:00 -4°C° 0 mm 2 mps 752 mmHg 93%
    23:00 -4°C° 0 mm 3 mps 752 mmHg 92%
    Show more